Location: Le Gr�zie
(43.6000°N, 13.5000°E)
Time: 10:18:25
(UTC+00:00)

COSMOS 2455 - Pass Details

Date: 09 April 2020
Orbit: 899 x 910 km, 67.1° (Epoch: 06 June)

Event Time Altitude Azimuth Distance (km) Brightness Sun altitude
Rises 18:17:03 0° 333° (NNW) 3,544 6.7 -6.8°
Reaches altitude 10° 18:19:45 10° 341° (NNW) 2,601 5.8 -7.3°
Maximum altitude 18:25:23 39° 50° (NE) 1,337 3.5 -8.3°
Enters shadow 18:30:45 11° 117° (ESE) 2,515 4.5 -9.2°
